When you browse on this site, cookies collect data to enhance your experience and personalize the content and advertising you see.
Visit our Privacy Policy to learn more. By continuing to use the site, you agree to this use of cookies and data.
  • Em Portugal
  • Lista de países
  • Para 7 dias
  • Temperatura da água
  • Mapas de satélite
  • Mapa do tempo
  • Widgets de tempo
  • user-avatar
    Iniciar Sessão

    Previsão horária em Lisburn

    Hoje, 18 Julho, Quinta-feira

    Tempo Temperatura Precipitação Vento Pressão Humidade
    00:00 +11°C° 0 mm 3 m/s 751 mmHg 96%
    01:00 +10°C° 0 mm 3 m/s 751 mmHg 96%
    02:00 +10°C° 0 mm 3 m/s 751 mmHg 96%
    03:00 +10°C° 0 mm 3 m/s 751 mmHg 97%
    04:00 +11°C° 0 mm 3 m/s 751 mmHg 96%
    05:00 +11°C° 0 mm 4 m/s 750 mmHg 95%
    06:00 +12°C° 0 mm 3 m/s 751 mmHg 98%
    07:00 +13°C° 0 mm 4 m/s 751 mmHg 93%
    08:00 +14°C° 0 mm 4 m/s 751 mmHg 88%
    09:00 +15°C° 0 mm 5 m/s 751 mmHg 83%
    10:00 +16°C° 0.3 mm 5 m/s 751 mmHg 81%
    11:00 +17°C° 0.3 mm 6 m/s 751 mmHg 79%
    12:00 +17°C° 0.3 mm 6 m/s 751 mmHg 77%
    13:00 +19°C° 0.5 mm 6 m/s 751 mmHg 78%
    14:00 +19°C° 0.5 mm 6 m/s 751 mmHg 79%
    15:00 +19°C° 0.5 mm 6 m/s 751 mmHg 80%
    16:00 +17°C° 0.5 mm 5 m/s 751 mmHg 82%
    17:00 +17°C° 0.5 mm 5 m/s 751 mmHg 84%
    18:00 +17°C° 0.5 mm 4 m/s 751 mmHg 86%
    19:00 +15°C° 0.1 mm 4 m/s 751 mmHg 88%
    20:00 +14°C° 0.1 mm 3 m/s 751 mmHg 91%
    21:00 +13°C° 0.1 mm 3 m/s 752 mmHg 93%
    22:00 +13°C° 0 mm 3 m/s 752 mmHg 94%
    23:00 +12°C° 0 mm 3 m/s 752 mmHg 95%

    Amanhã, 19 Julho, Sexta-feira

    Tempo Temperatura Precipitação Vento Pressão Humidade
    00:00 +12°C° 0 mm 2 m/s 752 mmHg 96%
    01:00 +12°C° 0 mm 2 m/s 751 mmHg 96%
    02:00 +12°C° 0 mm 2 m/s 751 mmHg 96%
    03:00 +10°C° 0 mm 2 m/s 751 mmHg 96%
    04:00 +12°C° 0 mm 2 m/s 751 mmHg 95%
    05:00 +12°C° 0 mm 2 m/s 750 mmHg 94%
    06:00 +13°C° 0 mm 1 m/s 750 mmHg 93%
    07:00 +13°C° 0.6 mm 2 m/s 750 mmHg 94%
    08:00 +13°C° 0.6 mm 2 m/s 749 mmHg 95%
    09:00 +14°C° 0.6 mm 2 m/s 749 mmHg 96%
    10:00 +13°C° 3.3 mm 3 m/s 748 mmHg 97%
    11:00 +13°C° 3.3 mm 4 m/s 748 mmHg 97%
    12:00 +13°C° 3.3 mm 4 m/s 748 mmHg 98%
    13:00 +14°C° 0.9 mm 3 m/s 747 mmHg 97%
    14:00 +14°C° 0.9 mm 3 m/s 747 mmHg 96%
    15:00 +16°C° 0.9 mm 2 m/s 747 mmHg 96%
    16:00 +16°C° 0.1 mm 2 m/s 747 mmHg 94%
    17:00 +16°C° 0.1 mm 3 m/s 746 mmHg 92%
    18:00 +16°C° 0.1 mm 3 m/s 746 mmHg 90%
    19:00 +16°C° 0 mm 3 m/s 746 mmHg 92%
    20:00 +15°C° 0 mm 2 m/s 746 mmHg 94%
    21:00 +14°C° 0 mm 2 m/s 747 mmHg 96%
    22:00 +14°C° 0.1 mm 1 m/s 747 mmHg 96%
    23:00 +14°C° 0.1 mm 1 m/s 747 mmHg 96%

    Depois de amanhã, 20 Julho, Sábado

    Tempo Temperatura Precipitação Vento Pressão Humidade
    00:00 +13°C° 0.1 mm 1 m/s 747 mmHg 96%
    01:00 +13°C° 0.1 mm 1 m/s 747 mmHg 96%
    02:00 +13°C° 0.1 mm 1 m/s 747 mmHg 96%
    03:00 +13°C° 0.1 mm 2 m/s 747 mmHg 96%
    04:00 +13°C° 0.2 mm 2 m/s 747 mmHg 97%
    05:00 +13°C° 0.2 mm 2 m/s 748 mmHg 97%
    06:00 +13°C° 0.2 mm 2 m/s 748 mmHg 97%
    07:00 +14°C° 0 mm 2 m/s 748 mmHg 94%
    08:00 +15°C° 0 mm 2 m/s 749 mmHg 91%
    09:00 +16°C° 0 mm 3 m/s 750 mmHg 88%
    10:00 +17°C° 0.1 mm 3 m/s 750 mmHg 82%
    11:00 +18°C° 0.1 mm 3 m/s 751 mmHg 77%
    12:00 +19°C° 0.1 mm 3 m/s 751 mmHg 71%
    13:00 +19°C° 0.1 mm 3 m/s 752 mmHg 71%
    14:00 +19°C° 0.1 mm 3 m/s 752 mmHg 70%
    15:00 +19°C° 0.1 mm 3 m/s 753 mmHg 70%
    16:00 +19°C° 0.1 mm 3 m/s 753 mmHg 73%
    17:00 +18°C° 0.1 mm 2 m/s 753 mmHg 76%
    18:00 +18°C° 0.1 mm 2 m/s 754 mmHg 79%
    19:00 +17°C° 0 mm 2 m/s 754 mmHg 81%
    20:00 +15°C° 0 mm 1 m/s 755 mmHg 84%
    21:00 +14°C° 0 mm 1 m/s 756 mmHg 87%
    22:00 +13°C° 0 mm 1 m/s 756 mmHg 87%
    23:00 +13°C° 0 mm 1 m/s 756 mmHg 88%

    21 Julho, Domingo

    Tempo Temperatura Precipitação Vento Pressão Humidade
    00:00 +12°C° 0 mm 1 m/s 756 mmHg 89%
    01:00 +12°C° 0 mm 1 m/s 756 mmHg 88%
    02:00 +12°C° 0 mm 1 m/s 756 mmHg 87%
    03:00 +12°C° 0 mm 1 m/s 756 mmHg 86%
    04:00 +12°C° 0 mm 1 m/s 756 mmHg 87%
    05:00 +13°C° 0 mm 2 m/s 756 mmHg 88%
    06:00 +13°C° 0 mm 2 m/s 757 mmHg 89%
    07:00 +13°C° 0.1 mm 2 m/s 757 mmHg 89%
    08:00 +13°C° 0.1 mm 3 m/s 757 mmHg 89%
    09:00 +13°C° 0.1 mm 3 m/s 757 mmHg 89%
    10:00 +14°C° 0.1 mm 4 m/s 757 mmHg 87%
    11:00 +16°C° 0.1 mm 5 m/s 757 mmHg 85%
    12:00 +17°C° 0.1 mm 6 m/s 757 mmHg 83%
    13:00 +19°C° 0.2 mm 6 m/s 757 mmHg 83%
    14:00 +20°C° 0.2 mm 6 m/s 757 mmHg 84%
    15:00 +21°C° 0.2 mm 6 m/s 757 mmHg 84%
    16:00 +20°C° 1.1 mm 6 m/s 757 mmHg 86%
    17:00 +20°C° 1.1 mm 5 m/s 757 mmHg 89%
    18:00 +19°C° 1.1 mm 4 m/s 756 mmHg 92%
    19:00 +19°C° 0.4 mm 5 m/s 756 mmHg 92%
    20:00 +17°C° 0.4 mm 5 m/s 756 mmHg 93%
    21:00 +16°C° 0.4 mm 6 m/s 756 mmHg 93%
    22:00 +16°C° 0.5 mm 6 m/s 756 mmHg 93%
    23:00 +16°C° 0.5 mm 6 m/s 755 mmHg 93%

    22 Julho, Segunda-feira

    Tempo Temperatura Precipitação Vento Pressão Humidade
    00:00 +16°C° 0.5 mm 6 m/s 755 mmHg 94%
    01:00 +16°C° 0 mm 6 m/s 755 mmHg 93%
    02:00 +16°C° 0 mm 6 m/s 755 mmHg 93%
    03:00 +17°C° 0 mm 6 m/s 755 mmHg 93%
    04:00 +17°C° 0 mm 6 m/s 755 mmHg 92%
    05:00 +17°C° 0 mm 6 m/s 755 mmHg 91%
    06:00 +17°C° 0 mm 6 m/s 755 mmHg 90%
    07:00 +19°C° 0 mm 6 m/s 755 mmHg 88%
    08:00 +20°C° 0 mm 7 m/s 756 mmHg 85%
    09:00 +21°C° 0 mm 7 m/s 756 mmHg 83%
    10:00 +22°C° 0 mm 7 m/s 756 mmHg 81%
    11:00 +22°C° 0 mm 8 m/s 757 mmHg 78%
    12:00 +23°C° 0 mm 8 m/s 757 mmHg 76%
    13:00 +23°C° 0 mm 8 m/s 757 mmHg 76%
    14:00 +23°C° 0 mm 8 m/s 757 mmHg 77%
    15:00 +23°C° 0 mm 8 m/s 757 mmHg 77%
    16:00 +23°C° 0 mm 8 m/s 757 mmHg 79%
    17:00 +22°C° 0 mm 7 m/s 757 mmHg 81%
    18:00 +21°C° 0 mm 7 m/s 757 mmHg 83%
    19:00 +20°C° 0 mm 6 m/s 757 mmHg 86%
    20:00 +19°C° 0 mm 5 m/s 757 mmHg 88%
    21:00 +17°C° 0 mm 5 m/s 757 mmHg 90%
    22:00 +18°C° 0 mm 4 m/s 757 mmHg 92%
    23:00 +17°C° 0 mm 4 m/s 757 mmHg 93%

    23 Julho, Terça-feira

    Tempo Temperatura Precipitação Vento Pressão Humidade
    00:00 +17°C° 0 mm 4 m/s 758 mmHg 94%
    01:00 +16°C° 0 mm 3 m/s 757 mmHg 95%
    02:00 +16°C° 0 mm 3 m/s 757 mmHg 96%
    03:00 +14°C° 0 mm 3 m/s 757 mmHg 97%
    04:00 +14°C° 0 mm 3 m/s 757 mmHg 97%
    05:00 +16°C° 0 mm 3 m/s 757 mmHg 96%
    06:00 +16°C° 0 mm 3 m/s 756 mmHg 95%
    07:00 +17°C° 0 mm 3 m/s 756 mmHg 89%
    08:00 +18°C° 0 mm 4 m/s 756 mmHg 84%
    09:00 +20°C° 0 mm 4 m/s 756 mmHg 78%
    10:00 +21°C° 0 mm 4 m/s 756 mmHg 76%
    11:00 +21°C° 0 mm 4 m/s 756 mmHg 74%
    12:00 +22°C° 0 mm 5 m/s 756 mmHg 72%
    13:00 +22°C° 0 mm 4 m/s 755 mmHg 72%
    14:00 +23°C° 0 mm 4 m/s 755 mmHg 71%
    15:00 +23°C° 0 mm 4 m/s 754 mmHg 71%
    16:00 +24°C° 0 mm 3 m/s 754 mmHg 72%
    17:00 +24°C° 0 mm 3 m/s 754 mmHg 74%
    18:00 +24°C° 0 mm 2 m/s 754 mmHg 76%
    19:00 +21°C° 0 mm 2 m/s 753 mmHg 80%
    20:00 +21°C° 0 mm 1 m/s 753 mmHg 84%
    21:00 +19°C° 0 mm 1 m/s 753 mmHg 87%
    22:00 +19°C° 0 mm 1 m/s 753 mmHg 87%
    23:00 +19°C° 0 mm 1 m/s 753 mmHg 88%
    Mostrar mais